When you browse on this site, cookies collect data to enhance your experience and personalize the content and advertising you see.
Visit our Privacy Policy to learn more. By continuing to use the site, you agree to this use of cookies and data.
  • In Hungary
  • List of Countries
  • For 7 days
  • Water Temperature
  • Satellite Maps
  • Weather Map
  • News
  • Weather Widgets
  • user-avatar
    Login

    Hourly Weather Egilsstaðir

    Today, 19 March, Tuesday

    Time Temperature Precipitation Wind Pressure Humidity
    00:00 -16°C° 0 mm 3 mps 662 mmHg 94%
    01:00 -16°C° 0 mm 3 mps 663 mmHg 94%
    02:00 -16°C° 0 mm 3 mps 663 mmHg 94%
    03:00 -17°C° 0 mm 3 mps 664 mmHg 94%
    04:00 -17°C° 0 mm 3 mps 664 mmHg 95%
    05:00 -16°C° 0 mm 2 mps 664 mmHg 95%
    06:00 -15°C° 0 mm 2 mps 665 mmHg 95%
    07:00 -15°C° 0 mm 2 mps 665 mmHg 95%
    08:00 -14°C° 0 mm 2 mps 666 mmHg 94%
    09:00 -13°C° 0 mm 2 mps 666 mmHg 93%
    10:00 -10°C° 0 mm 2 mps 667 mmHg 93%
    11:00 -8°C° 0 mm 1 mps 667 mmHg 92%
    12:00 -7°C° 0 mm 1 mps 667 mmHg 92%
    13:00 -7°C° 0 mm 1 mps 667 mmHg 92%
    14:00 -7°C° 0 mm 1 mps 667 mmHg 92%
    15:00 -7°C° 0 mm 1 mps 666 mmHg 93%
    16:00 -7°C° 0 mm 1 mps 666 mmHg 93%
    17:00 -9°C° 0 mm 2 mps 665 mmHg 93%
    18:00 -10°C° 0 mm 2 mps 665 mmHg 93%
    19:00 -13°C° 0 mm 3 mps 664 mmHg 94%
    20:00 -12°C° 0 mm 3 mps 663 mmHg 93%
    21:00 -12°C° 0 mm 3 mps 663 mmHg 92%
    22:00 -12°C° 0 mm 4 mps 662 mmHg 91%
    23:00 -11°C° 0.3 mm 4 mps 661 mmHg 92%

    Tomorrow, 20 March, Wednesday

    Time Temperature Precipitation Wind Pressure Humidity
    00:00 -12°C° 0.3 mm 5 mps 661 mmHg 93%
    01:00 -11°C° 0.3 mm 5 mps 660 mmHg 94%
    02:00 -11°C° 0.9 mm 5 mps 659 mmHg 95%
    03:00 -9°C° 0.9 mm 4 mps 659 mmHg 95%
    04:00 -9°C° 0.9 mm 4 mps 659 mmHg 96%
    05:00 -9°C° 0.2 mm 4 mps 659 mmHg 96%
    06:00 -9°C° 0.2 mm 4 mps 659 mmHg 95%
    07:00 -8°C° 0.2 mm 4 mps 659 mmHg 95%
    08:00 -8°C° 0.3 mm 5 mps 660 mmHg 94%
    09:00 -8°C° 0.3 mm 7 mps 660 mmHg 92%
    10:00 -8°C° 0.3 mm 8 mps 661 mmHg 90%
    11:00 -7°C° 0.3 mm 8 mps 661 mmHg 90%
    12:00 -7°C° 0.3 mm 8 mps 662 mmHg 90%
    13:00 -7°C° 0.3 mm 8 mps 662 mmHg 90%
    14:00 -8°C° 0.5 mm 9 mps 663 mmHg 90%
    15:00 -8°C° 0.5 mm 9 mps 664 mmHg 90%
    16:00 -8°C° 0.5 mm 10 mps 664 mmHg 91%
    17:00 -9°C° 0.2 mm 9 mps 664 mmHg 91%
    18:00 -9°C° 0.2 mm 9 mps 665 mmHg 92%
    19:00 -10°C° 0.2 mm 8 mps 665 mmHg 92%
    20:00 -10°C° 0.2 mm 8 mps 666 mmHg 93%
    21:00 -9°C° 0.2 mm 7 mps 666 mmHg 93%
    22:00 -9°C° 0.2 mm 7 mps 666 mmHg 93%
    23:00 -10°C° 0.1 mm 6 mps 666 mmHg 94%

    Day after tomorrow, 21 March, Thursday

    Time Temperature Precipitation Wind Pressure Humidity
    00:00 -10°C° 0.1 mm 5 mps 666 mmHg 94%
    01:00 -10°C° 0.1 mm 4 mps 666 mmHg 95%
    02:00 -9°C° 0.1 mm 4 mps 665 mmHg 96%
    03:00 -8°C° 0.1 mm 3 mps 664 mmHg 96%
    04:00 -8°C° 0.1 mm 3 mps 664 mmHg 96%
    05:00 -9°C° 0.5 mm 4 mps 663 mmHg 96%
    06:00 -8°C° 0.5 mm 5 mps 661 mmHg 95%
    07:00 -9°C° 0.5 mm 6 mps 660 mmHg 95%
    08:00 -8°C° 0.4 mm 8 mps 660 mmHg 94%
    09:00 -8°C° 0.4 mm 10 mps 660 mmHg 93%
    10:00 -6°C° 0.4 mm 12 mps 659 mmHg 93%
    11:00 -7°C° 0.6 mm 13 mps 660 mmHg 92%
    12:00 -8°C° 0.6 mm 14 mps 661 mmHg 92%
    13:00 -8°C° 0.6 mm 14 mps 661 mmHg 92%
    14:00 -9°C° 0.4 mm 14 mps 662 mmHg 90%
    15:00 -10°C° 0.4 mm 13 mps 663 mmHg 88%
    16:00 -11°C° 0.4 mm 13 mps 664 mmHg 87%
    17:00 -10°C° 0.3 mm 10 mps 665 mmHg 88%
    18:00 -11°C° 0.3 mm 8 mps 665 mmHg 90%
    19:00 -10°C° 0.3 mm 6 mps 666 mmHg 91%
    20:00 -11°C° 0 mm 5 mps 665 mmHg 91%
    21:00 -12°C° 0 mm 4 mps 665 mmHg 92%
    22:00 -13°C° 0 mm 3 mps 664 mmHg 92%
    23:00 -12°C° 0 mm 2 mps 664 mmHg 92%

    22 March, Friday

    Time Temperature Precipitation Wind Pressure Humidity
    00:00 -13°C° 0 mm 2 mps 664 mmHg 92%
    01:00 -11°C° 0 mm 1 mps 663 mmHg 92%
    02:00 -11°C° 0 mm 1 mps 663 mmHg 91%
    03:00 -11°C° 0 mm 1 mps 662 mmHg 91%
    04:00 -11°C° 0 mm 1 mps 662 mmHg 91%
    05:00 -10°C° 0 mm 1 mps 662 mmHg 91%
    06:00 -10°C° 0 mm 1 mps 662 mmHg 90%
    07:00 -10°C° 0 mm 1 mps 662 mmHg 90%
    08:00 -9°C° 0 mm 1 mps 662 mmHg 89%
    09:00 -8°C° 0 mm 0 mps 662 mmHg 88%
    10:00 -8°C° 0 mm 0 mps 662 mmHg 87%
    11:00 -7°C° 0 mm 1 mps 662 mmHg 86%
    12:00 -7°C° 0 mm 1 mps 662 mmHg 84%
    13:00 -6°C° 0 mm 1 mps 662 mmHg 83%
    14:00 -6°C° 0 mm 1 mps 663 mmHg 86%
    15:00 -7°C° 0 mm 2 mps 663 mmHg 88%
    16:00 -7°C° 0 mm 2 mps 663 mmHg 90%
    17:00 -8°C° 0 mm 2 mps 663 mmHg 92%
    18:00 -8°C° 0 mm 2 mps 663 mmHg 93%
    19:00 -9°C° 0 mm 3 mps 663 mmHg 95%
    20:00 -9°C° 0.3 mm 3 mps 664 mmHg 95%
    21:00 -9°C° 0.3 mm 4 mps 664 mmHg 96%
    22:00 -8°C° 0.3 mm 4 mps 664 mmHg 96%
    23:00 -8°C° 0.5 mm 5 mps 664 mmHg 96%

    23 March, Saturday

    Time Temperature Precipitation Wind Pressure Humidity
    00:00 -8°C° 0.5 mm 5 mps 664 mmHg 96%
    01:00 -9°C° 0.5 mm 6 mps 664 mmHg 96%
    02:00 -9°C° 0.9 mm 7 mps 664 mmHg 95%
    03:00 -8°C° 0.9 mm 8 mps 664 mmHg 95%
    04:00 -9°C° 0.9 mm 9 mps 663 mmHg 94%
    05:00 -8°C° 0.4 mm 8 mps 663 mmHg 95%
    06:00 -9°C° 0.4 mm 7 mps 663 mmHg 95%
    07:00 -8°C° 0.4 mm 5 mps 663 mmHg 95%
    08:00 -9°C° 0.4 mm 6 mps 663 mmHg 94%
    09:00 -8°C° 0.4 mm 6 mps 663 mmHg 94%
    10:00 -8°C° 0.4 mm 6 mps 663 mmHg 93%
    11:00 -8°C° 0.4 mm 7 mps 663 mmHg 92%
    12:00 -8°C° 0.4 mm 8 mps 663 mmHg 91%
    13:00 -9°C° 0.4 mm 9 mps 662 mmHg 91%
    14:00 -8°C° 0.3 mm 8 mps 662 mmHg 91%
    15:00 -8°C° 0.3 mm 8 mps 662 mmHg 91%
    16:00 -8°C° 0.3 mm 8 mps 662 mmHg 91%
    17:00 -9°C° 0.2 mm 7 mps 661 mmHg 92%
    18:00 -9°C° 0.2 mm 7 mps 661 mmHg 92%
    19:00 -9°C° 0.2 mm 7 mps 660 mmHg 93%
    20:00 -11°C° 0.2 mm 7 mps 660 mmHg 93%
    21:00 -11°C° 0.2 mm 8 mps 659 mmHg 93%
    22:00 -11°C° 0.2 mm 9 mps 659 mmHg 93%
    23:00 -10°C° 0.2 mm 9 mps 658 mmHg 93%

    24 March, Sunday

    Time Temperature Precipitation Wind Pressure Humidity
    00:00 -10°C° 0.2 mm 9 mps 658 mmHg 93%
    01:00 -10°C° 0.2 mm 9 mps 657 mmHg 93%
    02:00 -10°C° 0.9 mm 8 mps 657 mmHg 94%
    03:00 -10°C° 0.9 mm 8 mps 656 mmHg 94%
    04:00 -11°C° 0.9 mm 7 mps 656 mmHg 95%
    05:00 -10°C° 1.1 mm 6 mps 655 mmHg 95%
    06:00 -10°C° 1.1 mm 5 mps 655 mmHg 95%
    07:00 -9°C° 1.1 mm 4 mps 655 mmHg 95%
    08:00 -10°C° 1.6 mm 5 mps 654 mmHg 95%
    09:00 -10°C° 1.6 mm 6 mps 654 mmHg 95%
    10:00 -9°C° 1.6 mm 7 mps 653 mmHg 95%
    11:00 -9°C° 0.1 mm 6 mps 653 mmHg 93%
    12:00 -8°C° 0.1 mm 5 mps 653 mmHg 91%
    13:00 -7°C° 0.1 mm 4 mps 652 mmHg 90%
    14:00 -7°C° 0.7 mm 5 mps 652 mmHg 90%
    15:00 -8°C° 0.7 mm 7 mps 651 mmHg 89%
    16:00 -8°C° 0.7 mm 8 mps 651 mmHg 89%
    17:00 -8°C° 0.4 mm 7 mps 651 mmHg 91%
    18:00 -8°C° 0.4 mm 5 mps 651 mmHg 94%
    19:00 -8°C° 0.4 mm 4 mps 651 mmHg 96%
    20:00 -8°C° 0 mm 3 mps 651 mmHg 96%
    21:00 -10°C° 0 mm 3 mps 652 mmHg 95%
    22:00 -12°C° 0 mm 3 mps 652 mmHg 95%
    23:00 -12°C° 0 mm 4 mps 653 mmHg 95%
    Show more